Location: Broekland
(52.3610°N, 6.2005°E)
Time: 01:06:11
(UTC+00:00)

Cosmos 1766 - Pass Details

Date: 19 May 2025
Orbit: 443 x 456 km, 82.5° (Epoch: 23 June)

Event Time Altitude Azimuth Distance (km) Brightness Sun altitude
Rises 23:02:21 0° 342° (NNW) 2,466 8.3 -17.4°
Maximum altitude 23:07:40 33° 268° (W) 783 4.1 -17.5°
Enters shadow 23:08:34 28° 235° (SW) 876 4.1 -17.5°
